Regional Weather Roundup
Issued by NWS

Home | Current Version | Previous Version | Graphics & Text | Print | Product List | Glossary Off
Versions: 1 2 3 4 5 6 7 8 9 10 11 12 13 14 15 16 17 18 19 20 21 22 23 24 25 26 27 28 29 30 31 32 33 34 35 36 37 38 39 40 41 42 43 44 45 46 47 48 49 50

000
ASUS43 KTOP 221408
RWRKS

WEATHER ROUNDUP FOR KANSAS
NATIONAL WEATHER SERVICE GOODLAND KS
800 AM CST SUN JAN 22 2017

NOTE:  "FAIR" INDICATES FEW OR NO CLOUDS BELOW 12,000 FEET WITH NO
SIGNIFICANT WEATHER AND/OR OBSTRUCTIONS TO VISIBILITY.

KSZ001>006-013>018-027>032-041>047-221500-
NORTHWEST KANSAS

CITY           SKY/WX    TMP DP  RH WIND       PRES   REMARKS
GOODLAND       CLEAR     30  26  85 NW13      29.81R WCI  20
HAYS           CLEAR     32  29  88 N9        29.77R
HILL CITY      CLEAR     31  29  92 NW8       29.79R
RUSSELL        CLEAR     31  29  92 N8        29.75R
$$

KSZ061>065-074>080-084>089-221500-
SOUTHWEST KANSAS

CITY           SKY/WX    TMP DP  RH WIND       PRES   REMARKS
DODGE CITY     CLEAR     31  28  89 NW8       29.77R
ELKHART          N/A     32  22  67 NW8         N/A
GARDEN CITY    CLEAR     31  27  85 NW14      29.79R WCI  21
GREAT BEND     PTCLDY    35  31  85 NW12      29.76R WCI  27
LIBERAL          N/A     34  27  75 NW13      29.81R WCI  25
PRATT          PTCLDY    34  33  94 N16       29.73R WCI  24
$$

KSZ066>073-081>083-090>101-221500-
SOUTHEAST KANSAS

CITY           SKY/WX    TMP DP  RH WIND       PRES   REMARKS
CHANUTE        LGT RAIN  48  45  89 N15       29.56R
COFFEYVILLE    LGT RAIN  49  47  93 N15       29.52R
HUTCHINSON     CLEAR     39  36  89 N14       29.71R WCI  31
MEDICINE LODGE   N/A     39  36  89 N13       29.71R WCI  31
NEWTON         CLOUDY    40  38  93 N16       29.67R WCI  31
PARSONS        LGT RAIN  49  47  93 N13       29.54R
WICHITA INTL   MOCLDY    43  39  86 N15       29.66R
WICHITA JABRA  CLOUDY    42  40  92 N16       29.65R
WICHITA MCCONL MOCLDY    44  40  87 N17       29.65R
WINFIELD       CLOUDY    47  43  86 N16       29.61R
$$

KSZ007>012-019>026-033>040-048>060-102>105-221500-
NORTHEAST KANSAS

CITY           SKY/WX    TMP DP  RH WIND       PRES   REMARKS
CONCORDIA      CLEAR     31  29  92 NW7       29.73R
EMPORIA        CLOUDY    44  41  89 N13G21    29.63R
LAWRENCE       CLOUDY    44  40  85 NW10      29.64R
MANHATTAN      MOCLDY    38  33  82 N8        29.69R
MARYSVILLE     CLOUDY    30  28  93 NW7       29.71R FOG
OLATHE IND     CLOUDY    44  42  93 N9        29.62R
OLATHE EXE     CLOUDY    44  42  93 N9        29.62R
SALINA         CLOUDY    36  32  85 NW8       29.73R
TOPEKA BILLARD CLOUDY    41  37  86 N12       29.66R
TOPEKA FORBES  CLOUDY    44  39  82 N16G22    29.64R
$$



USA.gov is the U.S. government's official web portal to all federal, state and local government web resources and services.